TimeHST,TemperatureF,Dew PointF,Humidity,Sea Level PressureIn,VisibilityMPH,Wind Direction,Wind SpeedMPH,Gust SpeedMPH,PrecipitationIn,Events,Conditions,WindDirDegrees,DateUTC
12:53 AM,75.9,71.1,85,30.18,10.0,ENE,17.3,-,N/A,,Overcast,60,2013-07-10 10:53:00
1:12 AM,75.2,69.8,83,30.19,10.0,ENE,16.1,-,N/A,,Scattered Clouds,60,2013-07-10 11:12:00
1:53 AM,75.0,70.0,84,30.17,10.0,ENE,19.6,-,N/A,,Mostly Cloudy,60,2013-07-10 11:53:00
2:33 AM,75.2,69.8,83,30.17,10.0,ENE,20.7,24.2,N/A,,Mostly Cloudy,60,2013-07-10 12:33:00
2:53 AM,75.0,70.0,84,30.16,10.0,NE,17.3,-,N/A,,Mostly Cloudy,50,2013-07-10 12:53:00
3:12 AM,75.2,69.8,83,30.16,10.0,ENE,18.4,-,N/A,,Overcast,60,2013-07-10 13:12:00
3:44 AM,73.4,71.6,94,30.16,9.0,ENE,18.4,-,0.02,Rain,Light Rain,70,2013-07-10 13:44:00
3:53 AM,73.0,71.1,93,30.15,10.0,ENE,16.1,-,0.02,,Overcast,60,2013-07-10 13:53:00
4:53 AM,73.9,71.1,91,30.16,10.0,ENE,20.7,25.3,N/A,,Overcast,60,2013-07-10 14:53:00
5:53 AM,75.0,70.0,84,30.17,10.0,ENE,18.4,-,N/A,,Mostly Cloudy,60,2013-07-10 15:53:00
6:53 AM,73.9,71.1,91,30.18,10.0,NE,19.6,-,0.00,,Mostly Cloudy,50,2013-07-10 16:53:00
7:28 AM,75.2,71.6,89,30.20,10.0,NE,19.6,25.3,N/A,,Overcast,50,2013-07-10 17:28:00
7:53 AM,73.0,71.1,93,30.19,9.0,NE,17.3,-,0.03,Rain,Light Rain,50,2013-07-10 17:53:00
8:02 AM,73.4,71.6,94,30.20,8.0,NE,24.2,32.2,0.01,Rain,Light Rain,50,2013-07-10 18:02:00
8:15 AM,73.4,71.6,94,30.20,10.0,ENE,24.2,31.1,0.01,,Mostly Cloudy,60,2013-07-10 18:15:00
8:53 AM,75.0,71.1,87,30.20,10.0,East,21.9,27.6,0.01,,Overcast,80,2013-07-10 18:53:00
9:05 AM,71.6,71.6,100,30.21,3.0,ENE,18.4,29.9,0.01,Rain,Light Rain,70,2013-07-10 19:05:00
9:24 AM,73.4,73.4,100,30.21,10.0,NE,17.3,-,0.01,,Overcast,40,2013-07-10 19:24:00
9:53 AM,78.1,73.0,84,30.20,10.0,ENE,16.1,-,0.01,,Mostly Cloudy,60,2013-07-10 19:53:00
10:53 AM,79.0,71.1,77,30.20,10.0,ENE,17.3,-,N/A,,Mostly Cloudy,60,2013-07-10 20:53:00
11:15 AM,78.8,69.8,74,30.21,10.0,ENE,16.1,-,0.00,,Overcast,60,2013-07-10 21:15:00
11:53 AM,80.1,70.0,71,30.19,10.0,ENE,15.0,21.9,0.00,,Overcast,70,2013-07-10 21:53:00
12:53 PM,82.9,69.1,63,30.18,10.0,ENE,16.1,-,N/A,,Partly Cloudy,60,2013-07-10 22:53:00
1:53 PM,81.0,70.0,69,30.18,10.0,NE,16.1,-,N/A,,Mostly Cloudy,50,2013-07-10 23:53:00
2:53 PM,81.0,69.1,67,30.17,10.0,NE,18.4,-,N/A,,Partly Cloudy,50,2013-07-11 00:53:00
3:53 PM,81.0,69.1,67,30.15,10.0,NE,17.3,-,N/A,,Partly Cloudy,50,2013-07-11 01:53:00
4:53 PM,80.1,69.1,69,30.14,10.0,NE,18.4,-,N/A,,Partly Cloudy,50,2013-07-11 02:53:00
5:53 PM,75.9,70.0,82,30.14,10.0,NE,20.7,-,N/A,,Overcast,50,2013-07-11 03:53:00
6:53 PM,75.9,68.0,76,30.15,10.0,ENE,18.4,-,N/A,,Mostly Cloudy,60,2013-07-11 04:53:00
7:27 PM,75.2,69.8,83,30.16,10.0,NE,18.4,-,0.00,Rain,Light Rain,50,2013-07-11 05:27:00
7:37 PM,75.2,69.8,83,30.16,10.0,NE,20.7,-,0.00,,Mostly Cloudy,50,2013-07-11 05:37:00
7:53 PM,75.0,69.1,82,30.16,10.0,NE,20.7,-,0.00,,Mostly Cloudy,50,2013-07-11 05:53:00
8:39 PM,75.2,69.8,83,30.17,10.0,NE,24.2,-,N/A,,Overcast,50,2013-07-11 06:39:00
8:53 PM,75.0,69.1,82,30.17,10.0,NE,20.7,-,0.00,,Overcast,50,2013-07-11 06:53:00
9:53 PM,73.9,69.1,85,30.18,10.0,NE,19.6,-,0.01,,Mostly Cloudy,50,2013-07-11 07:53:00
10:53 PM,73.9,68.0,82,30.18,10.0,ENE,23.0,-,0.00,,Partly Cloudy,60,2013-07-11 08:53:00
11:53 PM,75.0,68.0,79,30.17,10.0,ENE,23.0,32.2,N/A,,Mostly Cloudy,60,2013-07-11 09:53:00